M I D A S
Marine Information and Data Acquisition System
Tripno 893 of the Zeeleeuw from 2005-05-02 06:51:35 to 2005-05-02 15:58:21
Back to CruiseResearch ActivitiesStationsMapUnderway DataData graphs

EquipmentUnitsComments
TimeDGPSUTC
LatitudeDGPSDM.mWGS84
LongitudeDGPSDM.mWGS84
SpeedMeteo Stationm/sRelative wind speed
DirectionMeteo StationdegRelative wind direction
TemperatureMeteo Stationdeg CelciusAir temperature
PressureMeteo StationPaAtmospheric pressure
HumidityMeteo Station%Relative humidity
Missing or incorrect values are displayed as -999
Metereological data collected by the RV Zeeleeuw from 2005-05-02 06:00:26 to 2005-05-02 16:09:17
                                                                                    Next 1000 lines
Time Latitude Longitude Speed Direction Temperature Pressure Humidity
2005-05-02 06:00:36 51°13.595 2°56.102 1.7 151 14.1 101050 75
2005-05-02 06:00:40 51°13.595 2°56.102 1.7 151 14.1 101060 75
2005-05-02 06:00:46 51°13.595 2°56.102 1.9 169 14.1 101060 75
2005-05-02 06:00:51 51°13.595 2°56.102 1.8 163 14.1 101060 75
2005-05-02 06:00:56 51°13.595 2°56.102 1.8 168 14.1 101060 75
2005-05-02 06:01:00 51°13.595 2°56.102 1.8 165 14.1 101060 75
2005-05-02 06:01:06 51°13.595 2°56.102 1.6 169 14.1 101060 75
2005-05-02 06:01:11 51°13.594 2°56.102 1.9 165 14.1 101070 75
2005-05-02 06:01:16 51°13.594 2°56.102 1.2 176 14.1 101070 75
2005-05-02 06:01:20 51°13.594 2°56.102 1.3 173 14 101060 75
2005-05-02 06:01:26 51°13.594 2°56.102 1.9 169 14 101060 75
2005-05-02 06:01:31 51°13.594 2°56.102 1.7 156 14 101070 75
2005-05-02 06:01:36 51°13.594 2°56.102 1.6 144 14 101070 75
2005-05-02 06:01:40 51°13.594 2°56.101 1.8 139 14 101070 75
2005-05-02 06:01:46 51°13.594 2°56.101 1.6 138 14 101070 75
2005-05-02 06:01:51 51°13.594 2°56.101 1.7 139 14 101070 75
2005-05-02 06:01:56 51°13.594 2°56.101 1.7 171 14 101070 75
2005-05-02 06:02:01 51°13.594 2°56.101 1.7 168 14 101070 76
2005-05-02 06:02:06 51°13.594 2°56.101 2.2 154 14 101070 76
2005-05-02 06:02:11 51°13.594 2°56.101 2 155 14 101070 76
2005-05-02 06:02:15 51°13.594 2°56.101 1.7 144 14 101070 76
2005-05-02 06:02:20 51°13.594 2°56.101 1.9 143 14 101080 76
2005-05-02 06:02:26 51°13.594 2°56.101 2.6 148 14 101080 76
2005-05-02 06:02:31 51°13.594 2°56.101 2.2 145 14 101080 76
2005-05-02 06:02:36 51°13.594 2°56.101 2.3 143 14 101080 76
2005-05-02 06:02:40 51°13.594 2°56.102 2.3 143 14 101080 76
2005-05-02 06:02:46 51°13.594 2°56.102 1.8 141 14 101080 76
2005-05-02 06:02:51 51°13.594 2°56.102 1.7 141 14 101080 76
2005-05-02 06:02:55 51°13.594 2°56.102 1.8 150 14 101080 76
2005-05-02 06:03:01 51°13.594 2°56.102 2.1 146 14 101080 76
2005-05-02 06:03:05 51°13.594 2°56.102 2.5 149 14 101080 76
2005-05-02 06:03:11 51°13.594 2°56.102 2.3 152 14 101080 76
2005-05-02 06:03:16 51°13.594 2°56.102 2 144 14 101080 76
2005-05-02 06:03:21 51°13.594 2°56.102 2.1 143 14 101080 76
2005-05-02 06:03:25 51°13.594 2°56.102 2.5 149 14 101080 76
2005-05-02 06:03:31 51°13.594 2°56.102 2.1 154 14 101080 76
2005-05-02 06:03:36 51°13.594 2°56.102 2.2 139 14 101080 76
2005-05-02 06:03:40 51°13.594 2°56.102 2 140 14 101090 76
2005-05-02 06:03:46 51°13.594 2°56.102 1.6 152 14 101090 76
2005-05-02 06:03:51 51°13.594 2°56.101 1.8 146 14 101090 76
2005-05-02 06:03:56 51°13.594 2°56.101 2.1 141 14 101090 76
2005-05-02 06:04:01 51°13.594 2°56.101 2.3 145 14 101090 76
2005-05-02 06:04:06 51°13.594 2°56.101 2.1 136 14 101090 76
2005-05-02 06:04:11 51°13.594 2°56.102 2.4 147 14 101090 76
2005-05-02 06:04:16 51°13.594 2°56.102 2.3 141 14 101090 76
2005-05-02 06:04:20 51°13.594 2°56.102 2.5 136 14 101090 76
2005-05-02 06:04:26 51°13.594 2°56.102 3.2 147 14 101090 76
2005-05-02 06:04:31 51°13.594 2°56.102 2.9 152 14 101100 76
2005-05-02 06:04:36 51°13.594 2°56.101 2.6 135 14 101100 76
2005-05-02 06:04:41 51°13.594 2°56.101 2.8 134 14 101100 76
2005-05-02 06:04:46 51°13.594 2°56.101 2.6 139 14 101100 76
2005-05-02 06:04:51 51°13.594 2°56.101 2.4 139 14 101100 76
2005-05-02 06:04:56 51°13.594 2°56.101 2.7 45 14 101100 76
2005-05-02 06:05:00 51°13.594 2°56.1 2.5 143 14 101100 76
2005-05-02 06:05:06 51°13.594 2°56.1 2.1 45 14 101100 76
2005-05-02 06:05:11 51°13.594 2°56.1 2 140 14 101100 76
2005-05-02 06:05:16 51°13.594 2°56.1 2.3 145 14 101100 76
2005-05-02 06:05:21 51°13.594 2°56.1 2.3 142 14 101110 76
2005-05-02 06:05:26 51°13.594 2°56.101 2 153 14 101110 76
2005-05-02 06:05:31 51°13.594 2°56.101 2.1 154 14 101110 76
2005-05-02 06:05:35 51°13.594 2°56.101 2.3 136 14 101110 76
2005-05-02 06:05:41 51°13.594 2°56.101 2.2 135 14 101110 76
2005-05-02 06:05:46 51°13.594 2°56.101 2.2 129 14 101110 76
2005-05-02 06:05:51 51°13.594 2°56.101 2.3 130 14 101110 76
2005-05-02 06:05:55 51°13.594 2°56.101 2.1 150 14 101110 76
2005-05-02 06:06:01 51°13.594 2°56.101 2.3 149 14 101110 76
2005-05-02 06:06:07 51°13.594 2°56.101 2.2 151 14 101110 76
2005-05-02 06:06:11 51°13.595 2°56.102 2.2 150 14 101110 76
2005-05-02 06:06:17 51°13.595 2°56.102 2.8 155 14 101110 76
2005-05-02 06:06:21 51°13.595 2°56.102 2.2 158 14 101110 76
2005-05-02 06:06:27 51°13.595 2°56.102 2.1 156 14 101110 76
2005-05-02 06:06:31 51°13.595 2°56.102 1.9 150 14 101120 76
2005-05-02 06:06:36 51°13.595 2°56.102 1.9 144 14 101120 76
2005-05-02 06:06:41 51°13.595 2°56.102 1.9 129 14 101120 76
2005-05-02 06:06:47 51°13.595 2°56.102 1.8 124 14 101120 76
2005-05-02 06:06:51 51°13.595 2°56.102 2.1 135 14 101120 76
2005-05-02 06:06:56 51°13.595 2°56.102 1.8 149 14 101120 76
2005-05-02 06:07:01 51°13.595 2°56.102 1.9 150 14 101120 76
2005-05-02 06:07:06 51°13.595 2°56.102 2 147 14 101120 76
2005-05-02 06:07:11 51°13.595 2°56.102 1.9 149 14 101120 76
2005-05-02 06:07:16 51°13.595 2°56.102 1.5 152 14 101120 76
2005-05-02 06:07:21 51°13.595 2°56.102 1.7 150 14 101120 76
2005-05-02 06:07:26 51°13.595 2°56.102 1.1 165 14 101120 76
2005-05-02 06:07:31 51°13.595 2°56.102 0.9 164 14 101120 76
2005-05-02 06:07:37 51°13.595 2°56.102 1.7 164 14 101120 76
2005-05-02 06:07:41 51°13.595 2°56.102 1.5 165 14 101120 76
2005-05-02 06:07:46 51°13.595 2°56.102 1.8 153 14 101120 76
2005-05-02 06:07:51 51°13.596 2°56.103 2.1 144 14 101120 76
2005-05-02 06:07:55 51°13.596 2°56.103 1.7 162 14 101120 76
2005-05-02 06:08:01 51°13.596 2°56.103 1.6 162 14.1 101130 76
2005-05-02 06:08:06 51°13.596 2°56.103 2 157 14.1 101130 76
2005-05-02 06:08:11 51°13.596 2°56.103 2.1 161 14 101120 76
2005-05-02 06:08:16 51°13.596 2°56.103 2.3 132 14 101120 76
2005-05-02 06:08:21 51°13.596 2°56.103 2.3 132 14 101130 76
2005-05-02 06:08:27 51°13.596 2°56.103 1.9 137 14 101130 76
2005-05-02 06:08:31 51°13.596 2°56.103 2.1 142 14.1 101130 76
2005-05-02 06:08:37 51°13.596 2°56.103 2 148 14.1 101130 76
2005-05-02 06:08:41 51°13.596 2°56.103 1.9 146 14 101130 76
2005-05-02 06:08:47 51°13.596 2°56.103 1.7 136 14 101130 76
2005-05-02 06:08:51 51°13.596 2°56.103 1.8 139 14 101130 76
2005-05-02 06:08:56 51°13.596 2°56.103 1.7 122 14 101130 76
2005-05-02 06:09:01 51°13.596 2°56.103 1.5 125 14.1 101130 76
2005-05-02 06:09:07 51°13.596 2°56.103 1.8 121 14.1 101130 76
2005-05-02 06:09:11 51°13.596 2°56.102 1.8 121 14 101130 76
2005-05-02 06:09:16 51°13.596 2°56.102 1.7 123 14 101130 76
2005-05-02 06:09:21 51°13.596 2°56.102 1.6 128 14.1 101130 76
2005-05-02 06:09:27 51°13.596 2°56.102 1.6 148 14.1 101130 76
2005-05-02 06:09:31 51°13.596 2°56.102 1.4 140 14 101130 76
2005-05-02 06:09:36 51°13.596 2°56.102 1.5 146 14 101130 76
2005-05-02 06:09:41 51°13.596 2°56.102 1.5 140 14.1 101130 76
2005-05-02 06:09:46 51°13.596 2°56.102 1.8 148 14.1 101130 76
2005-05-02 06:09:51 51°13.596 2°56.102 1.5 140 14 101130 76
2005-05-02 06:09:57 51°13.595 2°56.101 1.5 126 14 101130 76
2005-05-02 06:10:01 51°13.595 2°56.101 1.6 137 14.1 101130 76
2005-05-02 06:10:07 51°13.595 2°56.101 1.8 140 14.1 101130 76
2005-05-02 06:10:11 51°13.595 2°56.101 1.7 134 14.1 101130 76
2005-05-02 06:10:17 51°13.595 2°56.101 1.7 139 14.1 101130 76
2005-05-02 06:10:21 51°13.595 2°56.101 1.7 139 14.1 101140 76
2005-05-02 06:10:27 51°13.595 2°56.101 2.3 122 14.1 101140 76
2005-05-02 06:10:31 51°13.595 2°56.101 1.8 121 14.1 101140 76
2005-05-02 06:10:37 51°13.595 2°56.101 1.6 147 14.1 101140 76
2005-05-02 06:10:41 51°13.595 2°56.101 1.7 146 14.1 101130 76
2005-05-02 06:10:46 51°13.595 2°56.101 1.4 139 14.1 101130 76
2005-05-02 06:10:51 51°13.595 2°56.101 1.3 139 14.1 101130 77
2005-05-02 06:10:57 51°13.595 2°56.101 1.5 153 14.1 101130 77
2005-05-02 06:11:01 51°13.595 2°56.101 1.4 151 14.1 101130 77
2005-05-02 06:11:07 51°13.595 2°56.101 1.3 163 14.1 101130 77
2005-05-02 06:11:11 51°13.595 2°56.101 1.4 151 14.1 101140 77
2005-05-02 06:11:16 51°13.595 2°56.101 1.8 129 14.1 101140 77
2005-05-02 06:11:21 51°13.595 2°56.101 1.8 132 14.1 101130 77
2005-05-02 06:11:26 51°13.595 2°56.101 1.7 138 14.1 101130 77
2005-05-02 06:11:31 51°13.595 2°56.102 1.4 139 14.1 101140 77
2005-05-02 06:11:36 51°13.595 2°56.101 1.5 142 14.1 101140 77
2005-05-02 06:11:41 51°13.595 2°56.101 1.3 142 14.1 101140 77
2005-05-02 06:11:47 51°13.595 2°56.101 1.3 154 14.1 101140 77
2005-05-02 06:11:51 51°13.595 2°56.101 1.5 146 14.1 101140 77
2005-05-02 06:11:57 51°13.595 2°56.101 1.6 163 14.1 101140 77
2005-05-02 06:12:01 51°13.594 2°56.101 1.8 162 14.1 101140 77
2005-05-02 06:12:06 51°13.595 2°56.101 1.7 167 14.1 101140 77
2005-05-02 06:12:11 51°13.594 2°56.101 1.6 161 14.1 101140 77
2005-05-02 06:12:17 51°13.594 2°56.101 1.8 160 14.1 101140 77
2005-05-02 06:12:21 51°13.594 2°56.101 1.6 160 14.1 101140 77
2005-05-02 06:12:26 51°13.594 2°56.101 1.5 166 14.1 101140 77
2005-05-02 06:12:31 51°13.595 2°56.101 1.9 166 14.1 101140 77
2005-05-02 06:12:36 51°13.595 2°56.101 1.1 167 14.1 101140 77
2005-05-02 06:12:41 51°13.595 2°56.101 1 166 14.1 101140 77
2005-05-02 06:12:46 51°13.595 2°56.101 0.9 136 14.1 101140 77
2005-05-02 06:12:51 51°13.595 2°56.101 1.2 138 14.1 101140 76
2005-05-02 06:12:55 51°13.595 2°56.102 1.4 145 14.1 101140 76
2005-05-02 06:13:01 51°13.594 2°56.102 1.5 146 14.1 101140 76
2005-05-02 06:13:06 51°13.594 2°56.102 2.1 151 14.1 101140 76
2005-05-02 06:13:11 51°13.594 2°56.102 1.9 155 14.1 101140 76
2005-05-02 06:13:15 51°13.594 2°56.102 2.3 167 14.1 101140 76
2005-05-02 06:13:21 51°13.594 2°56.102 2.2 161 14.1 101140 76
2005-05-02 06:13:26 51°13.594 2°56.102 1.5 157 14.1 101140 76
2005-05-02 06:13:31 51°13.595 2°56.102 1.4 157 14.1 101150 76
2005-05-02 06:13:37 51°13.595 2°56.102 1.7 143 14.1 101150 76
2005-05-02 06:13:41 51°13.595 2°56.102 1.7 142 14.1 101150 76
2005-05-02 06:13:47 51°13.595 2°56.102 2 136 14.1 101150 76
2005-05-02 06:13:51 51°13.595 2°56.102 1.8 134 14.1 101150 76
2005-05-02 06:13:56 51°13.595 2°56.102 1.3 137 14.1 101150 76
2005-05-02 06:14:01 51°13.595 2°56.102 1.4 133 14.1 101150 76
2005-05-02 06:14:06 51°13.595 2°56.102 1.4 137 14.1 101150 76
2005-05-02 06:14:11 51°13.595 2°56.102 1.4 136 14 101150 76
2005-05-02 06:14:17 51°13.594 2°56.102 1.3 144 14 101150 76
2005-05-02 06:14:21 51°13.595 2°56.102 1.5 147 14.1 101150 76
2005-05-02 06:14:26 51°13.595 2°56.102 1.5 151 14.1 101150 76
2005-05-02 06:14:31 51°13.595 2°56.102 1.5 153 14.1 101150 76
2005-05-02 06:14:36 51°13.595 2°56.102 1.6 151 14.1 101150 76
2005-05-02 06:14:41 51°13.595 2°56.102 1.8 149 14.1 101150 76
2005-05-02 06:14:46 51°13.595 2°56.102 1.9 139 14.1 101150 76
2005-05-02 06:14:51 51°13.595 2°56.102 1.8 138 14.1 101150 76
2005-05-02 06:14:57 51°13.595 2°56.102 1.4 145 14.1 101150 76
2005-05-02 06:15:01 51°13.595 2°56.102 1.4 147 14.1 101150 76
2005-05-02 06:15:07 51°13.595 2°56.102 1.5 145 14.1 101150 76
2005-05-02 06:15:11 51°13.594 2°56.102 1.3 152 14.1 101150 76
2005-05-02 06:15:17 51°13.594 2°56.102 1.4 151 14.1 101150 76
2005-05-02 06:15:21 51°13.594 2°56.102 1.5 148 14.1 101160 76
2005-05-02 06:15:27 51°13.594 2°56.102 1.1 147 14.1 101160 76
2005-05-02 06:15:31 51°13.595 2°56.102 1.2 147 14.1 101150 76
2005-05-02 06:15:37 51°13.595 2°56.102 1.8 151 14.1 101150 76
2005-05-02 06:15:41 51°13.595 2°56.102 1.6 147 14.1 101150 77
2005-05-02 06:15:47 51°13.595 2°56.103 1.5 137 14.1 101150 77
2005-05-02 06:15:51 51°13.595 2°56.103 1.5 137 14.1 101160 77
2005-05-02 06:15:57 51°13.595 2°56.103 1.3 140 14.1 101160 77
2005-05-02 06:16:01 51°13.595 2°56.103 1.3 139 14.1 101160 77
2005-05-02 06:16:07 51°13.595 2°56.103 1.3 155 14.1 101160 77
2005-05-02 06:16:11 51°13.595 2°56.103 1.2 154 14.1 101160 77
2005-05-02 06:16:17 51°13.595 2°56.103 1.9 152 14.1 101160 77
2005-05-02 06:16:21 51°13.595 2°56.103 1.5 152 14.1 101160 77
2005-05-02 06:16:27 51°13.595 2°56.102 1.4 159 14.1 101160 77
2005-05-02 06:16:31 51°13.595 2°56.102 1.8 176 14.1 101160 77
2005-05-02 06:16:36 51°13.595 2°56.102 2 179 14.1 101160 77
2005-05-02 06:16:41 51°13.595 2°56.102 1.6 173 14.1 101160 76
2005-05-02 06:16:46 51°13.595 2°56.102 1.7 153 14.1 101160 76
2005-05-02 06:16:51 51°13.595 2°56.102 1.9 155 14.1 101160 77
2005-05-02 06:16:57 51°13.595 2°56.102 1.4 136 14.1 101160 77
2005-05-02 06:17:01 51°13.595 2°56.102 1.6 133 14.1 101170 77
2005-05-02 06:17:06 51°13.595 2°56.102 1.7 154 14.1 101170 77
2005-05-02 06:17:11 51°13.595 2°56.102 2.2 165 14.1 101170 77
2005-05-02 06:17:17 51°13.595 2°56.102 2.3 174 14.1 101170 77
2005-05-02 06:17:21 51°13.595 2°56.103 2.7 173 14.1 101170 77
2005-05-02 06:17:26 51°13.595 2°56.103 2.2 153 14.1 101170 77
2005-05-02 06:17:31 51°13.595 2°56.103 2.1 153 14.1 101170 77
2005-05-02 06:17:36 51°13.595 2°56.103 1.9 148 14.1 101170 77
2005-05-02 06:17:41 51°13.595 2°56.103 1.3 144 14.1 101170 77
2005-05-02 06:17:46 51°13.595 2°56.103 1.8 139 14.1 101170 77
2005-05-02 06:17:51 51°13.595 2°56.103 1.9 140 14.1 101180 77
2005-05-02 06:17:56 51°13.595 2°56.103 2.2 120 14.1 101180 77
2005-05-02 06:18:01 51°13.595 2°56.103 2.1 134 14.1 101170 77
2005-05-02 06:18:07 51°13.595 2°56.103 1.9 149 14.1 101170 77
2005-05-02 06:18:11 51°13.595 2°56.103 2 150 14.1 101180 77
2005-05-02 06:18:16 51°13.595 2°56.103 1.9 138 14.1 101180 77
2005-05-02 06:18:21 51°13.595 2°56.103 1.9 135 14.1 101180 77
2005-05-02 06:18:27 51°13.595 2°56.103 1.9 137 14.1 101180 77
2005-05-02 06:18:31 51°13.595 2°56.103 1.7 131 14.1 101180 77
2005-05-02 06:18:36 51°13.595 2°56.103 3 131 14.1 101180 77
2005-05-02 06:18:41 51°13.595 2°56.103 2.5 133 14.1 101180 77
2005-05-02 06:18:46 51°13.595 2°56.103 2.2 138 14.1 101180 77
2005-05-02 06:18:52 51°13.595 2°56.103 2.1 136 14.1 101180 77
2005-05-02 06:18:56 51°13.595 2°56.103 2.2 154 14.1 101180 77
2005-05-02 06:19:01 51°13.595 2°56.103 2.6 148 14.1 101190 77
2005-05-02 06:19:06 51°13.595 2°56.103 2.6 156 14.1 101190 77
2005-05-02 06:19:11 51°13.595 2°56.103 2.3 147 14.1 101190 77
2005-05-02 06:19:16 51°13.595 2°56.103 2 155 14.1 101190 77
2005-05-02 06:19:21 51°13.595 2°56.103 2.6 125 14.1 101190 77
2005-05-02 06:19:26 51°13.595 2°56.103 2.5 153 14.1 101190 77
2005-05-02 06:19:31 51°13.595 2°56.103 2.6 146 14.1 101190 77
2005-05-02 06:19:36 51°13.595 2°56.103 3.3 142 14.1 101190 77
2005-05-02 06:19:41 51°13.595 2°56.103 2.7 170 14.1 101200 77
2005-05-02 06:19:46 51°13.595 2°56.103 2.8 138 14.1 101200 77
2005-05-02 06:19:51 51°13.596 2°56.103 3.5 149 14.1 101200 77
2005-05-02 06:19:57 51°13.595 2°56.103 4.8 140 14.1 101200 77
2005-05-02 06:20:01 51°13.595 2°56.103 5.1 151 14.1 101200 77
2005-05-02 06:20:07 51°13.595 2°56.103 4.2 134 14.1 101200 77
2005-05-02 06:20:11 51°13.595 2°56.103 4.3 141 14.1 101200 77
2005-05-02 06:20:16 51°13.595 2°56.103 2.9 145 14.1 101200 77
2005-05-02 06:20:21 51°13.595 2°56.103 3 136 14 101210 77
2005-05-02 06:20:26 51°13.595 2°56.103 2.8 145 14 101210 77
2005-05-02 06:20:31 51°13.595 2°56.103 2.7 153 14 101210 77
2005-05-02 06:20:36 51°13.595 2°56.103 2.8 150 14 101210 77
2005-05-02 06:20:41 51°13.595 2°56.103 2.7 145 14 101210 77
2005-05-02 06:20:47 51°13.596 2°56.103 2.8 131 14 101210 77
2005-05-02 06:20:51 51°13.596 2°56.103 2.8 133 14 101210 77
2005-05-02 06:20:57 51°13.595 2°56.103 3.3 134 14 101210 77
2005-05-02 06:21:01 51°13.595 2°56.103 3.1 127 14 101210 77
2005-05-02 06:21:06 51°13.595 2°56.103 2.8 144 14 101210 77
2005-05-02 06:21:11 51°13.595 2°56.103 2.4 168 14 101220 78
2005-05-02 06:21:16 51°13.595 2°56.103 3.1 154 14 101220 78
2005-05-02 06:21:21 51°13.595 2°56.103 2.9 140 14 101220 78
2005-05-02 06:21:26 51°13.595 2°56.103 2.9 156 14 101220 78
2005-05-02 06:21:31 51°13.595 2°56.103 4.7 114 13.9 101220 78
2005-05-02 06:21:37 51°13.595 2°56.103 3.5 129 13.9 101220 78
2005-05-02 06:21:41 51°13.595 2°56.103 3.5 124 13.9 101220 78
2005-05-02 06:21:46 51°13.595 2°56.103 5.1 129 13.9 101220 78
2005-05-02 06:21:51 51°13.595 2°56.103 4.8 138 13.9 101230 78
2005-05-02 06:21:56 51°13.595 2°56.103 4.6 123 13.9 101230 78
2005-05-02 06:22:01 51°13.595 2°56.103 4.7 127 13.9 101230 78
2005-05-02 06:22:07 51°13.595 2°56.103 4.2 137 13.9 101230 78
2005-05-02 06:22:11 51°13.595 2°56.103 5.3 135 13.9 101230 78
2005-05-02 06:22:16 51°13.595 2°56.103 4.6 131 13.9 101230 78
2005-05-02 06:22:21 51°13.595 2°56.103 5.3 123 13.9 101240 78
2005-05-02 06:22:27 51°13.595 2°56.103 4 117 13.9 101240 78
2005-05-02 06:22:31 51°13.595 2°56.103 3.7 126 13.8 101240 79
2005-05-02 06:22:36 51°13.595 2°56.103 4.8 135 13.8 101240 79
2005-05-02 06:22:41 51°13.595 2°56.103 4.5 145 13.8 101240 79
2005-05-02 06:22:46 51°13.595 2°56.103 3.3 139 13.8 101240 79
2005-05-02 06:22:51 51°13.595 2°56.103 3.3 135 13.8 101240 79
2005-05-02 06:22:56 51°13.595 2°56.103 2.7 134 13.8 101240 79
2005-05-02 06:23:01 51°13.595 2°56.103 3.8 128 13.8 101250 79
2005-05-02 06:23:07 51°13.595 2°56.103 4 125 13.8 101250 79
2005-05-02 06:23:11 51°13.595 2°56.103 4.8 148 13.8 101250 79
2005-05-02 06:23:16 51°13.595 2°56.103 5 122 13.8 101250 79
2005-05-02 06:23:21 51°13.595 2°56.103 5 130 13.8 101250 79
2005-05-02 06:23:25 51°13.596 2°56.103 6.6 131 13.8 101250 79
2005-05-02 06:23:32 51°13.596 2°56.103 5.2 133 13.8 101260 79
2005-05-02 06:23:36 51°13.595 2°56.103 5.4 141 13.8 101260 79
2005-05-02 06:23:41 51°13.596 2°56.103 6.9 113 13.8 101250 79
2005-05-02 06:23:46 51°13.596 2°56.103 5.8 122 13.8 101250 79
2005-05-02 06:23:51 51°13.595 2°56.103 4.8 123 13.7 101260 80
2005-05-02 06:23:56 51°13.595 2°56.103 6.2 125 13.7 101260 80
2005-05-02 06:24:01 51°13.595 2°56.103 4.6 141 13.7 101270 80
2005-05-02 06:24:07 51°13.595 2°56.103 6.6 133 13.7 101270 80
2005-05-02 06:24:11 51°13.595 2°56.103 7 134 13.7 101270 80
2005-05-02 06:24:16 51°13.595 2°56.103 5.6 124 13.7 101270 80
2005-05-02 06:24:21 51°13.595 2°56.103 5 141 13.7 101270 80
2005-05-02 06:24:26 51°13.595 2°56.103 5.6 125 13.7 101270 80
2005-05-02 06:24:31 51°13.595 2°56.103 4.9 117 13.7 101280 80
2005-05-02 06:24:36 51°13.595 2°56.103 3.8 125 13.7 101280 80
2005-05-02 06:24:41 51°13.595 2°56.103 3.8 105 13.7 101280 80
2005-05-02 06:24:47 51°13.595 2°56.103 6.1 118 13.7 101280 80
2005-05-02 06:24:51 51°13.595 2°56.103 5.8 127 13.7 101280 80
2005-05-02 06:24:56 51°13.595 2°56.103 5.4 120 13.7 101280 80
2005-05-02 06:25:01 51°13.595 2°56.103 6.6 145 13.7 101290 80
2005-05-02 06:25:07 51°13.595 2°56.103 6.7 92 13.7 101290 80
2005-05-02 06:25:11 51°13.595 2°56.103 1.9 133 13.7 101300 81
2005-05-02 06:25:16 51°13.595 2°56.103 5.3 125 13.7 101300 81
2005-05-02 06:25:21 51°13.595 2°56.103 5.9 112 13.7 101300 81
2005-05-02 06:25:27 51°13.595 2°56.103 5.5 120 13.7 101300 81
2005-05-02 06:25:31 51°13.595 2°56.103 4.3 110 13.7 101310 81
2005-05-02 06:25:36 51°13.595 2°56.103 7.1 44 13.7 101310 81
2005-05-02 06:25:41 51°13.595 2°56.103 6.7 129 13.7 101310 81
2005-05-02 06:25:47 51°13.595 2°56.103 6.2 123 13.7 101310 81
2005-05-02 06:25:51 51°13.594 2°56.103 5.7 115 13.6 101320 81
2005-05-02 06:25:56 51°13.594 2°56.103 5.2 120 13.6 101320 81
2005-05-02 06:26:01 51°13.594 2°56.103 4.8 112 13.6 101320 81
2005-05-02 06:26:06 51°13.595 2°56.103 6 115 13.6 101320 81
2005-05-02 06:26:12 51°13.595 2°56.103 5.8 109 13.6 101320 81
2005-05-02 06:26:16 51°13.595 2°56.103 5.6 110 13.6 101320 81
2005-05-02 06:26:21 51°13.595 2°56.103 5.7 119 13.6 101330 81
2005-05-02 06:26:26 51°13.595 2°56.103 4.2 113 13.6 101330 81
2005-05-02 06:26:31 51°13.595 2°56.103 5.4 122 13.6 101330 82
2005-05-02 06:26:37 51°13.595 2°56.103 6.3 135 13.6 101330 82
2005-05-02 06:26:41 51°13.595 2°56.103 4.5 134 13.6 101330 82
2005-05-02 06:26:47 51°13.595 2°56.103 3.4 125 13.6 101330 82
2005-05-02 06:26:51 51°13.594 2°56.103 4.3 113 13.6 101340 82
2005-05-02 06:26:56 51°13.594 2°56.103 5.5 104 13.6 101340 82
2005-05-02 06:27:01 51°13.594 2°56.103 6.2 105 13.6 101350 82
2005-05-02 06:27:07 51°13.594 2°56.103 5.8 116 13.6 101350 82
2005-05-02 06:27:11 51°13.595 2°56.103 5 135 13.6 101350 82
2005-05-02 06:27:16 51°13.595 2°56.103 5.7 106 13.6 101350 82
2005-05-02 06:27:21 51°13.595 2°56.103 7.8 97 13.5 101360 82
2005-05-02 06:27:27 51°13.595 2°56.103 7.7 105 13.5 101360 82
2005-05-02 06:27:31 51°13.595 2°56.103 7.2 71 13.5 101360 82
2005-05-02 06:27:36 51°13.595 2°56.103 6.6 102 13.5 101360 82
2005-05-02 06:27:41 51°13.595 2°56.103 6.1 120 13.5 101370 82
2005-05-02 06:27:47 51°13.595 2°56.104 4.6 124 13.5 101370 82
2005-05-02 06:27:51 51°13.595 2°56.104 5.5 102 13.5 101370 82
2005-05-02 06:27:56 51°13.595 2°56.104 6.5 143 13.5 101370 82
2005-05-02 06:28:01 51°13.595 2°56.104 6 127 13.5 101370 82
2005-05-02 06:28:06 51°13.595 2°56.104 7 129 13.5 101370 82
2005-05-02 06:28:11 51°13.596 2°56.104 5.5 135 13.5 101370 83
2005-05-02 06:28:17 51°13.596 2°56.104 8.5 126 13.5 101370 83
2005-05-02 06:28:21 51°13.596 2°56.104 9.7 111 13.5 101380 83
2005-05-02 06:28:26 51°13.596 2°56.104 6.3 135 13.5 101380 83
2005-05-02 06:28:31 51°13.596 2°56.104 5.2 117 13.5 101380 83
2005-05-02 06:28:37 51°13.596 2°56.104 5.2 124 13.5 101380 83
2005-05-02 06:28:41 51°13.596 2°56.104 5.2 141 13.5 101380 83
2005-05-02 06:28:47 51°13.596 2°56.104 6 122 13.5 101380 83
2005-05-02 06:28:51 51°13.596 2°56.104 5.4 132 13.4 101380 83
2005-05-02 06:28:57 51°13.596 2°56.104 8.4 112 13.4 101380 83
2005-05-02 06:29:01 51°13.596 2°56.104 6.3 126 13.4 101380 83
2005-05-02 06:29:07 51°13.596 2°56.104 8.3 124 13.4 101380 83
2005-05-02 06:29:11 51°13.595 2°56.104 9.5 115 13.4 101390 83
2005-05-02 06:29:17 51°13.596 2°56.104 7.9 115 13.4 101390 83
2005-05-02 06:29:21 51°13.596 2°56.104 9.8 129 13.4 101390 84
2005-05-02 06:29:27 51°13.596 2°56.104 6.8 109 13.4 101390 84
2005-05-02 06:29:31 51°13.596 2°56.104 7.1 138 13.4 101390 84
2005-05-02 06:29:35 51°13.596 2°56.104 6.7 101 13.4 101390 84
2005-05-02 06:29:41 51°13.596 2°56.104 6.8 99 13.3 101400 84
2005-05-02 06:29:47 51°13.596 2°56.104 6.4 112 13.3 101400 84
2005-05-02 06:29:51 51°13.596 2°56.104 8.5 113 13.3 101400 84
2005-05-02 06:29:55 51°13.595 2°56.104 6.3 110 13.3 101400 84
2005-05-02 06:30:01 51°13.595 2°56.104 6.1 116 13.3 101390 84
2005-05-02 06:30:07 51°13.595 2°56.104 6.2 227 13.3 101390 84
2005-05-02 06:30:11 51°13.595 2°56.104 5.7 144 13.3 101400 84
2005-05-02 06:30:17 51°13.595 2°56.104 4.1 106 13.3 101400 84
2005-05-02 06:30:21 51°13.595 2°56.104 5.3 96 13.3 101400 84
2005-05-02 06:30:27 51°13.595 2°56.103 5.9 110 13.3 101400 84
2005-05-02 06:30:31 51°13.595 2°56.103 6.8 113 13.3 101410 84
2005-05-02 06:30:37 51°13.595 2°56.103 8.5 124 13.3 101410 84
2005-05-02 06:30:41 51°13.595 2°56.103 9.1 125 13.2 101400 85
2005-05-02 06:30:46 51°13.595 2°56.104 9.1 124 13.2 101400 85
2005-05-02 06:30:51 51°13.595 2°56.104 8.7 114 13.2 101410 85
2005-05-02 06:30:56 51°13.595 2°56.104 7.6 112 13.2 101410 85
2005-05-02 06:31:01 51°13.595 2°56.104 8 117 13.2 101400 85
2005-05-02 06:31:05 51°13.595 2°56.104 8 123 13.2 101400 85
2005-05-02 06:31:11 51°13.595 2°56.104 7.9 106 13.2 101410 85
2005-05-02 06:31:17 51°13.595 2°56.104 10.3 132 13.2 101410 85
2005-05-02 06:31:21 51°13.595 2°56.104 9.1 127 13.2 101410 85
2005-05-02 06:31:27 51°13.595 2°56.104 8.2 101 13.2 101410 85
2005-05-02 06:31:31 51°13.595 2°56.103 7.9 120 13.2 101410 85
2005-05-02 06:31:36 51°13.595 2°56.103 7.9 112 13.2 101410 85
2005-05-02 06:31:41 51°13.595 2°56.103 5.5 130 13.1 101420 86
2005-05-02 06:31:46 51°13.595 2°56.103 5.9 106 13.1 101420 86
2005-05-02 06:31:51 51°13.595 2°56.103 6.7 98 13.1 101410 86
2005-05-02 06:31:56 51°13.595 2°56.103 5 122 13.1 101410 86
2005-05-02 06:32:01 51°13.595 2°56.103 6.4 120 13.1 101410 86
2005-05-02 06:32:06 51°13.595 2°56.103 4.6 108 13.1 101410 86
2005-05-02 06:32:11 51°13.595 2°56.103 5 115 13.1 101410 86
2005-05-02 06:32:16 51°13.595 2°56.103 4.1 110 13.1 101410 86
2005-05-02 06:32:21 51°13.595 2°56.103 4.5 130 13 101410 87
2005-05-02 06:32:27 51°13.595 2°56.103 7.4 130 13 101410 87
2005-05-02 06:32:32 51°13.595 2°56.103 8.5 112 13 101420 87
2005-05-02 06:32:37 51°13.595 2°56.103 14.3 126 13 101420 87
2005-05-02 06:32:41 51°13.595 2°56.103 13.7 140 13 101430 87
2005-05-02 06:32:46 51°13.595 2°56.102 11.3 127 13 101430 87
2005-05-02 06:32:51 51°13.595 2°56.103 11.9 144 13 101430 87
2005-05-02 06:32:56 51°13.595 2°56.103 10.8 129 13 101430 87
2005-05-02 06:33:01 51°13.594 2°56.103 12.8 124 13 101410 88
2005-05-02 06:33:06 51°13.594 2°56.103 10.2 138 13 101410 88
2005-05-02 06:33:11 51°13.594 2°56.103 6.6 228 12.9 101410 88
2005-05-02 06:33:15 51°13.594 2°56.103 8.7 118 12.9 101410 88
2005-05-02 06:33:21 51°13.594 2°56.103 7.5 98 12.9 101410 88
2005-05-02 06:33:26 51°13.594 2°56.103 6.7 122 12.9 101410 88
2005-05-02 06:33:31 51°13.594 2°56.103 7.8 117 12.9 101420 88
2005-05-02 06:33:35 51°13.594 2°56.103 7.9 97 12.9 101420 88
2005-05-02 06:33:41 51°13.594 2°56.103 6.3 119 12.9 101420 88
2005-05-02 06:33:47 51°13.594 2°56.103 5.8 110 12.9 101420 88
2005-05-02 06:33:51 51°13.594 2°56.103 4.7 114 12.9 101420 89
2005-05-02 06:33:56 51°13.594 2°56.103 6.2 156 12.9 101420 89
2005-05-02 06:34:01 51°13.594 2°56.103 8.4 146 12.9 101420 89
2005-05-02 06:34:07 51°13.594 2°56.103 10 41 12.9 101420 89
2005-05-02 06:34:11 51°13.594 2°56.103 11.1 139 12.9 101420 89
2005-05-02 06:34:17 51°13.594 2°56.103 5.6 129 12.9 101420 89
2005-05-02 06:34:21 51°13.594 2°56.103 10.5 146 12.9 101420 90
2005-05-02 06:34:26 51°13.594 2°56.103 7.9 227 12.9 101420 90
2005-05-02 06:34:31 51°13.594 2°56.103 7.7 108 12.8 101420 90
2005-05-02 06:34:37 51°13.594 2°56.103 8.2 151 12.8 101420 90
2005-05-02 06:34:41 51°13.594 2°56.103 10.7 143 12.8 101410 90
2005-05-02 06:34:47 51°13.594 2°56.103 7 127 12.8 101410 90
2005-05-02 06:34:51 51°13.594 2°56.103 6.8 109 12.8 101410 90
2005-05-02 06:34:57 51°13.594 2°56.103 11.3 107 12.8 101410 90
2005-05-02 06:35:01 51°13.594 2°56.103 11.5 102 12.8 101420 90
2005-05-02 06:35:07 51°13.594 2°56.103 8 108 12.8 101420 90
2005-05-02 06:35:11 51°13.594 2°56.103 6.7 142 12.8 101420 90
2005-05-02 06:35:17 51°13.594 2°56.103 6.1 126 12.8 101420 90
2005-05-02 06:35:21 51°13.594 2°56.102 6.2 104 12.7 101420 91
2005-05-02 06:35:26 51°13.594 2°56.102 7.3 118 12.7 101420 91
2005-05-02 06:35:31 51°13.594 2°56.102 6.5 227 12.7 101420 91
2005-05-02 06:35:36 51°13.594 2°56.102 7.1 117 12.7 101420 91
2005-05-02 06:35:41 51°13.594 2°56.102 5.6 146 12.7 101430 91
2005-05-02 06:35:46 51°13.594 2°56.102 7.7 118 12.7 101430 91
2005-05-02 06:35:51 51°13.594 2°56.102 7.7 150 12.7 101430 91
2005-05-02 06:35:56 51°13.594 2°56.102 8.3 125 12.7 101430 91
2005-05-02 06:36:01 51°13.594 2°56.102 11.9 133 12.7 101430 91
2005-05-02 06:36:06 51°13.594 2°56.102 5.3 136 12.7 101430 91
2005-05-02 06:36:12 51°13.594 2°56.102 5.5 136 12.7 101430 92
2005-05-02 06:36:16 51°13.594 2°56.102 5.2 117 12.7 101430 92
2005-05-02 06:36:21 51°13.594 2°56.102 11.1 117 12.7 101430 92
2005-05-02 06:36:27 51°13.595 2°56.102 6.8 127 12.7 101430 92
2005-05-02 06:36:31 51°13.595 2°56.102 6.2 125 12.6 101420 92
2005-05-02 06:36:35 51°13.595 2°56.102 7.9 115 12.6 101420 92
2005-05-02 06:36:41 51°13.595 2°56.103 7.6 115 12.6 101420 92
2005-05-02 06:36:47 51°13.595 2°56.103 11.7 133 12.6 101420 92
2005-05-02 06:36:51 51°13.595 2°56.103 10 130 12.6 101430 92
2005-05-02 06:36:55 51°13.595 2°56.103 7.8 113 12.6 101430 92
2005-05-02 06:37:01 51°13.595 2°56.103 6.4 129 12.6 101420 92
2005-05-02 06:37:07 51°13.595 2°56.102 5.6 129 12.6 101420 92
2005-05-02 06:37:11 51°13.595 2°56.102 6.1 115 12.6 101430 93
2005-05-02 06:37:16 51°13.595 2°56.102 4.6 151 12.6 101430 93
2005-05-02 06:37:21 51°13.595 2°56.102 6.3 124 12.6 101420 93
2005-05-02 06:37:26 51°13.595 2°56.102 4.2 43 12.6 101420 93
2005-05-02 06:37:31 51°13.595 2°56.102 4.9 112 12.6 101430 93
2005-05-02 06:37:35 51°13.595 2°56.102 4.8 122 12.6 101430 93
2005-05-02 06:37:41 51°13.595 2°56.102 6.4 120 12.6 101430 93
2005-05-02 06:37:46 51°13.595 2°56.102 5.9 117 12.6 101430 93
2005-05-02 06:37:51 51°13.595 2°56.102 7.4 122 12.6 101430 93
2005-05-02 06:37:57 51°13.595 2°56.102 6.1 111 12.6 101430 93
2005-05-02 06:38:01 51°13.595 2°56.102 7.3 99 12.5 101430 93
2005-05-02 06:38:06 51°13.595 2°56.102 6 90 12.5 101430 93
2005-05-02 06:38:12 51°13.595 2°56.102 4.5 90 12.5 101440 94
2005-05-02 06:38:17 51°13.595 2°56.102 4.3 110 12.5 101440 94
2005-05-02 06:38:21 51°13.595 2°56.102 5.2 135 12.5 101430 94
2005-05-02 06:38:27 51°13.595 2°56.102 5.8 104 12.5 101430 94
2005-05-02 06:38:31 51°13.595 2°56.102 5 103 12.5 101430 94
2005-05-02 06:38:36 51°13.595 2°56.102 6.9 123 12.5 101430 94
2005-05-02 06:38:41 51°13.595 2°56.102 8.7 117 12.5 101430 94
2005-05-02 06:38:47 51°13.595 2°56.102 8.3 122 12.5 101430 94
2005-05-02 06:38:51 51°13.595 2°56.102 13.9 119 12.5 101430 94
2005-05-02 06:38:57 51°13.595 2°56.102 11.9 116 12.5 101430 94
2005-05-02 06:39:01 51°13.595 2°56.102 9.3 111 12.5 101430 94
2005-05-02 06:39:06 51°13.596 2°56.102 7.3 110 12.5 101430 94
2005-05-02 06:39:11 51°13.596 2°56.102 6.9 117 12.5 101430 94
2005-05-02 06:39:16 51°13.596 2°56.101 7.8 120 12.5 101430 94
2005-05-02 06:39:21 51°13.596 2°56.101 6.5 119 12.5 101420 94
2005-05-02 06:39:27 51°13.596 2°56.101 11 112 12.5 101420 94
2005-05-02 06:39:31 51°13.596 2°56.101 8.1 121 12.5 101410 94
2005-05-02 06:39:37 51°13.596 2°56.101 10.5 126 12.5 101410 94
2005-05-02 06:39:41 51°13.596 2°56.101 10.1 124 12.5 101410 94
2005-05-02 06:39:46 51°13.596 2°56.101 7.8 124 12.5 101410 94
2005-05-02 06:39:51 51°13.596 2°56.101 7.9 139 12.5 101420 95
2005-05-02 06:39:57 51°13.596 2°56.101 5.9 126 12.5 101420 95
2005-05-02 06:40:01 51°13.596 2°56.101 6.5 123 12.5 101420 95
2005-05-02 06:40:06 51°13.596 2°56.101 4.4 132 12.5 101420 95
2005-05-02 06:40:11 51°13.596 2°56.1 5.7 130 12.4 101410 95
2005-05-02 06:40:16 51°13.596 2°56.1 4.6 137 12.4 101410 95
2005-05-02 06:40:21 51°13.596 2°56.1 5.9 141 12.4 101420 95
2005-05-02 06:40:27 51°13.596 2°56.1 6.7 96 12.4 101420 95
2005-05-02 06:40:31 51°13.596 2°56.1 6.2 111 12.4 101420 95
2005-05-02 06:40:36 51°13.596 2°56.1 6.8 123 12.4 101420 95
2005-05-02 06:40:41 51°13.596 2°56.1 5.8 112 12.4 101410 95
2005-05-02 06:40:46 51°13.596 2°56.1 5.7 143 12.4 101410 95
2005-05-02 06:40:51 51°13.596 2°56.101 5.2 154 12.4 101410 95
2005-05-02 06:40:57 51°13.596 2°56.101 6.2 126 12.4 101410 95
2005-05-02 06:41:01 51°13.596 2°56.101 5 136 12.4 101410 95
2005-05-02 06:41:07 51°13.596 2°56.101 5.8 122 12.4 101410 95
2005-05-02 06:41:11 51°13.596 2°56.101 4.8 110 12.4 101410 95
2005-05-02 06:41:17 51°13.596 2°56.101 4.2 113 12.4 101410 95
2005-05-02 06:41:21 51°13.596 2°56.101 5.5 133 12.4 101400 95
2005-05-02 06:41:27 51°13.596 2°56.101 5.7 143 12.4 101400 95
2005-05-02 06:41:31 51°13.596 2°56.101 5.7 129 12.4 101400 95
2005-05-02 06:41:36 51°13.596 2°56.101 6.4 107 12.4 101400 95
2005-05-02 06:41:41 51°13.596 2°56.101 5.6 127 12.4 101410 95
2005-05-02 06:41:47 51°13.595 2°56.101 5 124 12.4 101410 95
2005-05-02 06:41:51 51°13.596 2°56.101 5.1 123 12.4 101400 95
2005-05-02 06:41:57 51°13.596 2°56.101 6.2 136 12.4 101400 95
2005-05-02 06:42:02 51°13.595 2°56.101 5.8 120 12.4 101410 95
2005-05-02 06:42:06 51°13.595 2°56.101 5.1 136 12.4 101410 95
2005-05-02 06:42:11 51°13.595 2°56.101 5.4 118 12.4 101400 95
2005-05-02 06:42:17 51°13.595 2°56.101 6.7 103 12.4 101400 95
2005-05-02 06:42:21 51°13.595 2°56.101 6.2 41 12.4 101400 95
2005-05-02 06:42:27 51°13.595 2°56.101 8 118 12.4 101400 95
2005-05-02 06:42:31 51°13.595 2°56.101 6.1 115 12.4 101390 96
2005-05-02 06:42:37 51°13.595 2°56.101 8.4 127 12.4 101390 96
2005-05-02 06:42:41 51°13.595 2°56.101 6.8 107 12.4 101390 96
2005-05-02 06:42:46 51°13.595 2°56.101 5.9 105 12.4 101390 96
2005-05-02 06:42:51 51°13.595 2°56.101 5.9 95 12.4 101380 96
2005-05-02 06:42:56 51°13.595 2°56.101 5 104 12.4 101380 96
2005-05-02 06:43:02 51°13.595 2°56.101 4.9 109 12.4 101380 96
2005-05-02 06:43:06 51°13.595 2°56.101 5.4 123 12.4 101380 96
2005-05-02 06:43:11 51°13.595 2°56.101 4.1 227 12.4 101380 96
2005-05-02 06:43:17 51°13.594 2°56.102 4.7 143 12.4 101380 96
2005-05-02 06:43:22 51°13.593 2°56.102 4 133 12.4 101380 96
2005-05-02 06:43:26 51°13.593 2°56.102 3.2 137 12.4 101380 96
2005-05-02 06:43:31 51°13.593 2°56.102 3.1 135 12.4 101380 96
2005-05-02 06:43:37 51°13.593 2°56.102 3.3 128 12.4 101380 96
2005-05-02 06:43:41 51°13.593 2°56.102 4.1 123 12.4 101380 96
2005-05-02 06:43:47 51°13.593 2°56.102 3.8 103 12.4 101380 96
2005-05-02 06:43:51 51°13.593 2°56.102 3.1 119 12.4 101380 96
2005-05-02 06:43:57 51°13.594 2°56.102 4.9 127 12.4 101380 96
2005-05-02 06:44:01 51°13.594 2°56.102 4.7 125 12.4 101380 96
2005-05-02 06:44:06 51°13.594 2°56.102 3 122 12.4 101380 96
2005-05-02 06:44:11 51°13.594 2°56.102 4.7 115 12.4 101380 96
2005-05-02 06:44:16 51°13.594 2°56.102 4.6 115 12.4 101380 96
2005-05-02 06:44:21 51°13.594 2°56.102 4.3 116 12.4 101370 96
2005-05-02 06:44:26 51°13.594 2°56.102 4.3 130 12.4 101370 96
2005-05-02 06:44:31 51°13.594 2°56.102 4.9 121 12.4 101370 96
2005-05-02 06:44:37 51°13.595 2°56.102 4.5 121 12.4 101370 96
2005-05-02 06:44:41 51°13.595 2°56.103 4.6 105 12.4 101370 96
2005-05-02 06:44:46 51°13.595 2°56.103 5.2 116 12.4 101370 96
2005-05-02 06:44:51 51°13.595 2°56.103 5.2 120 12.4 101370 96
2005-05-02 06:44:57 51°13.595 2°56.103 4.7 117 12.4 101370 96
2005-05-02 06:45:01 51°13.595 2°56.103 4.6 108 12.4 101370 96
2005-05-02 06:45:07 51°13.595 2°56.103 5.5 106 12.4 101370 96
2005-05-02 06:45:11 51°13.595 2°56.103 4.7 113 12.4 101360 96
2005-05-02 06:45:17 51°13.595 2°56.103 3 134 12.4 101360 96
2005-05-02 06:45:21 51°13.595 2°56.103 3.1 124 12.4 101360 96
2005-05-02 06:45:27 51°13.595 2°56.103 3.3 149 12.4 101360 96
2005-05-02 06:45:31 51°13.596 2°56.103 2.7 138 12.4 101360 96
2005-05-02 06:45:36 51°13.596 2°56.103 2.4 108 12.4 101360 96
2005-05-02 06:45:41 51°13.596 2°56.103 2.4 128 12.4 101360 96
2005-05-02 06:45:47 51°13.595 2°56.102 2.9 117 12.4 101360 96
2005-05-02 06:45:51 51°13.595 2°56.102 2.5 100 12.4 101360 97
2005-05-02 06:45:56 51°13.595 2°56.102 2.8 104 12.4 101360 97
2005-05-02 06:46:01 51°13.595 2°56.102 2 114 12.4 101360 97
2005-05-02 06:46:07 51°13.595 2°56.102 3 136 12.4 101360 97
2005-05-02 06:46:12 51°13.595 2°56.103 3.9 132 12.4 101350 97
2005-05-02 06:46:16 51°13.595 2°56.103 3.7 122 12.4 101350 97
2005-05-02 06:46:21 51°13.595 2°56.102 3.1 131 12.4 101350 97
2005-05-02 06:46:27 51°13.595 2°56.103 3.3 143 12.4 101350 97
2005-05-02 06:46:32 51°13.595 2°56.104 2.9 140 12.4 101350 97
2005-05-02 06:46:37 51°13.596 2°56.104 2.8 140 12.4 101350 97
2005-05-02 06:46:42 51°13.596 2°56.105 3 226 12.4 101350 97
2005-05-02 06:46:46 51°13.596 2°56.106 2.3 111 12.4 101350 97
2005-05-02 06:46:51 51°13.596 2°56.107 2.3 119 12.4 101350 97
2005-05-02 06:46:57 51°13.596 2°56.108 2.5 108 12.4 101350 97
2005-05-02 06:47:01 51°13.596 2°56.108 3.4 79 12.4 101350 97
2005-05-02 06:47:06 51°13.596 2°56.108 2.1 123 12.4 101350 97
2005-05-02 06:47:11 51°13.596 2°56.108 2 118 12.4 101340 97
2005-05-02 06:47:17 51°13.596 2°56.108 3 129 12.4 101340 97
2005-05-02 06:47:21 51°13.596 2°56.104 2.9 124 12.4 101340 97
2005-05-02 06:47:26 51°13.595 2°56.101 3.4 113 12.4 101340 97
2005-05-02 06:47:31 51°13.595 2°56.101 3.2 114 12.4 101330 97
2005-05-02 06:47:36 51°13.594 2°56.101 3.5 160 12.4 101330 97
2005-05-02 06:47:41 51°13.594 2°56.101 2.5 139 12.4 101330 97
2005-05-02 06:47:47 51°13.595 2°56.102 2.5 136 12.4 101330 97
2005-05-02 06:47:51 51°13.595 2°56.102 2 127 12.3 101330 97
2005-05-02 06:47:56 51°13.594 2°56.102 2.3 123 12.3 101330 97
2005-05-02 06:48:01 51°13.594 2°56.102 2.3 127 12.3 101330 97
2005-05-02 06:48:07 51°13.594 2°56.101 2 154 12.3 101330 97
2005-05-02 06:48:11 51°13.594 2°56.1 1.9 156 12.4 101330 97
2005-05-02 06:48:17 51°13.594 2°56.099 3 172 12.4 101330 97
2005-05-02 06:48:21 51°13.594 2°56.097 3.1 156 12.3 101330 97
2005-05-02 06:48:27 51°13.595 2°56.094 2.5 140 12.3 101330 97
2005-05-02 06:48:31 51°13.595 2°56.092 2.2 151 12.4 101320 97
2005-05-02 06:48:36 51°13.596 2°56.089 1.8 149 12.4 101320 97
2005-05-02 06:48:42 51°13.597 2°56.086 2 145 12.4 101320 97
2005-05-02 06:48:47 51°13.598 2°56.083 2.6 171 12.4 101320 97
2005-05-02 06:48:52 51°13.599 2°56.079 2.9 159 12.4 101320 97
2005-05-02 06:48:57 51°13.6 2°56.075 2.8 158 12.4 101320 97
2005-05-02 06:49:02 51°13.601 2°56.07 2.6 149 12.4 101320 97
2005-05-02 06:49:07 51°13.602 2°56.066 3.7 174 12.4 101320 97
2005-05-02 06:49:12 51°13.604 2°56.061 3.7 160 12.4 101320 97
2005-05-02 06:49:17 51°13.605 2°56.056 3.6 155 12.4 101320 97
2005-05-02 06:49:22 51°13.606 2°56.05 3.9 147 12.4 101310 97
2005-05-02 06:49:27 51°13.608 2°56.044 3.2 151 12.4 101310 97
2005-05-02 06:49:31 51°13.609 2°56.039 3.2 152 12.4 101310 97
2005-05-02 06:49:37 51°13.611 2°56.033 2.4 166 12.4 101310 97
2005-05-02 06:49:42 51°13.613 2°56.026 1.9 186 12.4 101310 97
2005-05-02 06:49:47 51°13.615 2°56.02 1.8 191 12.4 101310 97
2005-05-02 06:49:52 51°13.617 2°56.013 2.4 171 12.4 101310 97
2005-05-02 06:49:57 51°13.619 2°56.007 1.9 195 12.4 101310 97
2005-05-02 06:50:02 51°13.622 2°55.999 2 197 12.4 101310 97
2005-05-02 06:50:07 51°13.624 2°55.993 3 196 12.4 101310 97
2005-05-02 06:50:12 51°13.626 2°55.986 2.1 192 12.4 101300 97
2005-05-02 06:50:17 51°13.629 2°55.979 2.4 183 12.4 101300 97
2005-05-02 06:50:22 51°13.632 2°55.971 3.3 177 12.4 101300 97
2005-05-02 06:50:27 51°13.635 2°55.965 3.5 181 12.4 101300 97
2005-05-02 06:50:31 51°13.637 2°55.958 4.2 186 12.5 101300 97
2005-05-02 06:50:37 51°13.641 2°55.95 3.5 176 12.5 101300 97
2005-05-02 06:50:42 51°13.644 2°55.943 3.2 170 12.5 101300 97
2005-05-02 06:50:47 51°13.647 2°55.935 2.5 177 12.5 101300 97
2005-05-02 06:50:52 51°13.651 2°55.928 2.7 180 12.5 101290 98
2005-05-02 06:50:57 51°13.654 2°55.921 3.6 170 12.5 101290 98
2005-05-02 06:51:02 51°13.657 2°55.913 4 176 12.5 101290 98
2005-05-02 06:51:07 51°13.66 2°55.906 4 173 12.5 101290 98
2005-05-02 06:51:12 51°13.664 2°55.898 3.6 179 12.5 101290 97
2005-05-02 06:51:17 51°13.667 2°55.891 3.3 171 12.5 101290 97
2005-05-02 06:51:22 51°13.67 2°55.884 3.8 174 12.5 101290 97
2005-05-02 06:51:27 51°13.673 2°55.877 3.8 172 12.5 101290 97
2005-05-02 06:51:32 51°13.677 2°55.87 4.4 168 12.5 101290 97
2005-05-02 06:51:37 51°13.68 2°55.863 3.4 185 12.5 101290 97
2005-05-02 06:51:42 51°13.683 2°55.855 2 186 12.5 101290 97
2005-05-02 06:51:47 51°13.686 2°55.849 2.3 192 12.5 101290 97
2005-05-02 06:51:52 51°13.689 2°55.841 2.2 194 12.5 101290 97
2005-05-02 06:51:57 51°13.693 2°55.833 2.4 195 12.5 101290 97
2005-05-02 06:52:02 51°13.696 2°55.824 3.3 203 12.6 101280 97
2005-05-02 06:52:07 51°13.699 2°55.817 4 201 12.6 101280 97
2005-05-02 06:52:12 51°13.702 2°55.809 3.5 201 12.6 101280 97
2005-05-02 06:52:17 51°13.704 2°55.801 3.2 189 12.6 101280 97
2005-05-02 06:52:22 51°13.708 2°55.792 2.1 186 12.7 101270 98
2005-05-02 06:52:27 51°13.71 2°55.785 2.8 202 12.7 101270 98
2005-05-02 06:52:31 51°13.712 2°55.778 3.6 200 12.7 101280 98
2005-05-02 06:52:37 51°13.715 2°55.769 3.7 213 12.7 101280 98
2005-05-02 06:52:42 51°13.716 2°55.761 3.3 205 12.8 101270 98
2005-05-02 06:52:47 51°13.718 2°55.752 3.1 205 12.8 101270 98
2005-05-02 06:52:52 51°13.72 2°55.744 3.6 217 12.7 101270 98
2005-05-02 06:52:57 51°13.721 2°55.737 4.2 219 12.7 101270 98
2005-05-02 06:53:02 51°13.723 2°55.73 4.1 217 12.7 101260 98
2005-05-02 06:53:07 51°13.723 2°55.724 3.8 221 12.7 101260 98
2005-05-02 06:53:12 51°13.724 2°55.719 3.3 218 12.7 101260 97
2005-05-02 06:53:17 51°13.725 2°55.716 2.9 233 12.7 101260 97
2005-05-02 06:53:21 51°13.725 2°55.714 2.4 238 12.7 101250 97
2005-05-02 06:53:26 51°13.725 2°55.713 2.5 267 12.7 101250 97
2005-05-02 06:53:31 51°13.725 2°55.714 1.9 290 12.7 101250 97
2005-05-02 06:53:37 51°13.725 2°55.715 1.6 291 12.7 101250 97
2005-05-02 06:53:41 51°13.725 2°55.717 2 298 12.7 101240 97
2005-05-02 06:53:46 51°13.726 2°55.719 2.7 301 12.7 101240 97
2005-05-02 06:53:51 51°13.727 2°55.72 2.7 306 12.7 101240 97
2005-05-02 06:53:55 51°13.727 2°55.72 3.1 295 12.7 101240 97
2005-05-02 06:54:02 51°13.727 2°55.72 2.8 293 12.7 101230 97
2005-05-02 06:54:06 51°13.727 2°55.719 2.1 285 12.7 101230 97
2005-05-02 06:54:11 51°13.726 2°55.718 2.4 292 12.7 101220 97
2005-05-02 06:54:17 51°13.725 2°55.716 2.4 283 12.7 101220 97
2005-05-02 06:54:21 51°13.725 2°55.714 2.9 301 12.7 101220 97
2005-05-02 06:54:27 51°13.723 2°55.711 2 267 12.7 101220 97
2005-05-02 06:54:31 51°13.722 2°55.709 1.7 298 12.7 101220 97
2005-05-02 06:54:37 51°13.722 2°55.708 2 308 12.7 101220 97
2005-05-02 06:54:42 51°13.722 2°55.708 2.3 318 12.7 101210 97
2005-05-02 06:54:47 51°13.723 2°55.708 2.8 327 12.7 101210 97
2005-05-02 06:54:52 51°13.724 2°55.71 2.5 323 12.7 101210 97
2005-05-02 06:54:57 51°13.725 2°55.711 2.4 347 12.7 101210 97
2005-05-02 06:55:02 51°13.727 2°55.712 2.4 1 12.7 101200 97
2005-05-02 06:55:07 51°13.728 2°55.712 2.3 4 12.7 101200 97
2005-05-02 06:55:12 51°13.728 2°55.713 2.3 10 12.7 101190 97
2005-05-02 06:55:17 51°13.727 2°55.713 2 5 12.7 101190 97
2005-05-02 06:55:22 51°13.726 2°55.712 1.9 5 12.7 101190 97
2005-05-02 06:55:26 51°13.725 2°55.712 1.2 15 12.7 101190 97
2005-05-02 06:55:31 51°13.723 2°55.712 1.3 20 12.7 101190 97
2005-05-02 06:55:37 51°13.72 2°55.711 1.4 2 12.7 101190 97
2005-05-02 06:55:42 51°13.718 2°55.71 1.7 360 12.7 101190 97
2005-05-02 06:55:47 51°13.717 2°55.71 2.6 8 12.7 101190 97
2005-05-02 06:55:52 51°13.718 2°55.71 3.1 24 12.7 101190 97
2005-05-02 06:55:57 51°13.719 2°55.71 3.5 22 12.7 101190 97
2005-05-02 06:56:02 51°13.722 2°55.709 3.6 24 12.7 101180 97
2005-05-02 06:56:07 51°13.725 2°55.709 3.8 33 12.7 101180 97
2005-05-02 06:56:12 51°13.728 2°55.707 3.5 37 12.7 101180 97
2005-05-02 06:56:17 51°13.732 2°55.705 4.1 31 12.7 101180 97
2005-05-02 06:56:22 51°13.737 2°55.702 4.1 34 12.7 101180 97
2005-05-02 06:56:27 51°13.741 2°55.699 4.4 28 12.7 101180 97
2005-05-02 06:56:31 51°13.746 2°55.695 4.1 29 12.7 101180 97
2005-05-02 06:56:37 51°13.754 2°55.691 4.2 38 12.7 101180 97
2005-05-02 06:56:41 51°13.759 2°55.687 4.3 22 12.7 101170 97
2005-05-02 06:56:47 51°13.769 2°55.681 4.7 29 12.7 101170 97
2005-05-02 06:56:51 51°13.776 2°55.676 4.4 27 12.6 101170 97
2005-05-02 06:56:56 51°13.783 2°55.671 4 28 12.6 101170 97
2005-05-02 06:57:02 51°13.794 2°55.664 4.6 30 12.7 101170 97
2005-05-02 06:57:07 51°13.803 2°55.658 5.5 22 12.7 101170 97
2005-05-02 06:57:11 51°13.811 2°55.652 5.2 27 12.7 101170 97
2005-05-02 06:57:16 51°13.821 2°55.646 5.8 16 12.7 101170 97
2005-05-02 06:57:21 51°13.831 2°55.639 5.4 22 12.7 101170 97
2005-05-02 06:57:27 51°13.842 2°55.632 5.3 30 12.7 101170 97
2005-05-02 06:57:31 51°13.85 2°55.626 6 32 12.7 101170 97
2005-05-02 06:57:35 51°13.859 2°55.62 5.5 32 12.7 101170 97
2005-05-02 06:57:41 51°13.871 2°55.611 5.7 34 12.7 101170 97
2005-05-02 06:57:47 51°13.882 2°55.604 5.5 23 12.7 101170 97
2005-05-02 06:57:52 51°13.893 2°55.596 5.6 22 12.7 101170 97
2005-05-02 06:57:57 51°13.903 2°55.59 5.3 28 12.7 101170 97
2005-05-02 06:58:01 51°13.912 2°55.583 6.1 21 12.7 101170 97
2005-05-02 06:58:06 51°13.923 2°55.575 5.8 27 12.7 101170 97
2005-05-02 06:58:11 51°13.934 2°55.567 6.2 27 12.7 101160 97
2005-05-02 06:58:17 51°13.946 2°55.559 6.1 27 12.7 101160 97
2005-05-02 06:58:21 51°13.954 2°55.553 5.8 26 12.7 101170 97
2005-05-02 06:58:27 51°13.967 2°55.543 5.9 24 12.7 101170 97
2005-05-02 06:58:31 51°13.977 2°55.537 5.6 26 12.7 101170 97
2005-05-02 06:58:37 51°13.989 2°55.528 5.8 23 12.7 101170 97
2005-05-02 06:58:41 51°13.998 2°55.52 6 22 12.7 101170 97
2005-05-02 06:58:47 51°14.01 2°55.511 5.5 18 12.7 101170 97
2005-05-02 06:58:51 51°14.02 2°55.503 5.7 20 12.7 101170 97
2005-05-02 06:58:56 51°14.031 2°55.496 5.5 20 12.7 101170 97
2005-05-02 06:59:02 51°14.044 2°55.486 5.5 18 12.7 101170 97
2005-05-02 06:59:07 51°14.056 2°55.477 5.8 17 12.7 101170 97
2005-05-02 06:59:11 51°14.066 2°55.469 6.1 18 12.7 101170 97
2005-05-02 06:59:17 51°14.079 2°55.46 5.5 16 12.7 101170 97
2005-05-02 06:59:21 51°14.088 2°55.453 5.9 19 12.7 101170 97
2005-05-02 06:59:27 51°14.102 2°55.443 5.4 14 12.7 101170 97
2005-05-02 06:59:31 51°14.113 2°55.435 5.4 17 12.7 101170 97
2005-05-02 06:59:36 51°14.124 2°55.425 5.2 15 12.7 101170 97
2005-05-02 06:59:41 51°14.135 2°55.417 5.3 20 12.7 101170 97
2005-05-02 06:59:47 51°14.149 2°55.405 5.6 18 12.7 101170 97
2005-05-02 06:59:52 51°14.16 2°55.395 5.5 20 12.6 101170 97
2005-05-02 06:59:57 51°14.172 2°55.385 5.4 16 12.6 101170 97
2005-05-02 07:00:01 51°14.181 2°55.377 5.5 17 12.6 101170 97
2005-05-02 07:00:06 51°14.194 2°55.364 5.7 20 12.6 101170 97
2005-05-02 07:00:11 51°14.205 2°55.352 5.5 19 12.6 101180 97
2005-05-02 07:00:17 51°14.217 2°55.337 5.5 17 12.6 101180 97
2005-05-02 07:00:21 51°14.227 2°55.325 5.6 16 12.6 101180 97
2005-05-02 07:00:26 51°14.238 2°55.31 5.6 16 12.6 101180 97
2005-05-02 07:00:31 51°14.249 2°55.295 5.6 14 12.6 101180 97
2005-05-02 07:00:37 51°14.259 2°55.277 5.6 15 12.6 101180 97
2005-05-02 07:00:42 51°14.269 2°55.26 5.5 14 12.6 101180 97
2005-05-02 07:00:46 51°14.277 2°55.244 5.6 11 12.6 101180 97
2005-05-02 07:00:51 51°14.287 2°55.226 5.7 11 12.6 101180 97
2005-05-02 07:00:57 51°14.298 2°55.205 6.1 10 12.6 101180 97
2005-05-02 07:01:01 51°14.306 2°55.188 6.1 9 12.6 101190 97
2005-05-02 07:01:07 51°14.317 2°55.166 6 8 12.6 101190 97
2005-05-02 07:01:11 51°14.326 2°55.149 6.2 7 12.5 101190 97
2005-05-02 07:01:17 51°14.337 2°55.127 6.5 6 12.5 101190 97
2005-05-02 07:01:21 51°14.345 2°55.11 6.5 6 12.5 101190 97
2005-05-02 07:01:27 51°14.357 2°55.086 6.7 4 12.5 101190 97
2005-05-02 07:01:31 51°14.367 2°55.068 6.7 5 12.5 101200 97
2005-05-02 07:01:37 51°14.379 2°55.047 6.8 5 12.5 101200 97
2005-05-02 07:01:41 51°14.39 2°55.03 6.7 6 12.5 101200 97
2005-05-02 07:01:47 51°14.404 2°55.011 6.5 7 12.5 101200 97
2005-05-02 07:01:51 51°14.416 2°54.998 6.7 8 12.5 101200 97
2005-05-02 07:01:57 51°14.431 2°54.981 6.9 9 12.5 101200 97
2005-05-02 07:02:01 51°14.444 2°54.968 6.8 11 12.5 101210 97
2005-05-02 07:02:07 51°14.46 2°54.952 7 11 12.5 101210 97
2005-05-02 07:02:11 51°14.472 2°54.939 7.1 11 12.4 101210 97
2005-05-02 07:02:17 51°14.487 2°54.923 7.3 10 12.4 101210 97
2005-05-02 07:02:21 51°14.5 2°54.909 7.5 10 12.4 101210 97
2005-05-02 07:02:26 51°14.513 2°54.894 7.5 8 12.4 101210 97
2005-05-02 07:02:32 51°14.528 2°54.877 7.6 9 12.4 101210 97
2005-05-02 07:02:36 51°14.539 2°54.864 8.1 8 12.4 101210 97
2005-05-02 07:02:41 51°14.552 2°54.848 8.1 9 12.4 101210 97
2005-05-02 07:02:46 51°14.566 2°54.833 8.2 8 12.4 101210 97
2005-05-02 07:02:51 51°14.582 2°54.816 8.4 9 12.4 101220 97
2005-05-02 07:02:57 51°14.599 2°54.799 8.2 11 12.4 101220 97
2005-05-02 07:03:01 51°14.613 2°54.786 8.1 10 12.4 101220 97
2005-05-02 07:03:06 51°14.628 2°54.771 7.8 9 12.4 101220 97
2005-05-02 07:03:11 51°14.644 2°54.756 7.9 8 12.4 101220 97
2005-05-02 07:03:15 51°14.657 2°54.744 7.6 6 12.4 101220 97
2005-05-02 07:03:21 51°14.677 2°54.728 7.6 3 12.4 101220 97
2005-05-02 07:03:27 51°14.695 2°54.713 8 4 12.4 101220 97
2005-05-02 07:03:31 51°14.71 2°54.7 8.2 5 12.3 101220 97
2005-05-02 07:03:36 51°14.727 2°54.687 8.4 5 12.3 101220 97
2005-05-02 07:03:41 51°14.742 2°54.675 8.6 4 12.3 101220 97
2005-05-02 07:03:47 51°14.761 2°54.658 8.7 2 12.3 101220 97
2005-05-02 07:03:51 51°14.776 2°54.646 9.1 3 12.3 101230 97
2005-05-02 07:03:56 51°14.793 2°54.632 9.4 -999 12.3 101230 97
2005-05-02 07:04:01 51°14.81 2°54.619 9.3 359 12.3 101230 97
2005-05-02 07:04:07 51°14.828 2°54.604 9.3 358 12.3 101230 97
2005-05-02 07:04:11 51°14.843 2°54.592 9.4 357 12.3 101220 97
2005-05-02 07:04:16 51°14.859 2°54.578 9.7 357 12.3 101220 97
2005-05-02 07:04:21 51°14.876 2°54.564 9.7 355 12.3 101230 97
2005-05-02 07:04:27 51°14.895 2°54.549 9.6 356 12.3 101230 97
2005-05-02 07:04:31 51°14.91 2°54.538 9.7 356 12.3 101220 97
2005-05-02 07:04:36 51°14.925 2°54.526 9.8 356 12.3 101220 97
2005-05-02 07:04:42 51°14.944 2°54.51 9.6 356 12.3 101220 98
2005-05-02 07:04:46 51°14.959 2°54.497 9.5 355 12.3 101220 98
2005-05-02 07:04:51 51°14.975 2°54.482 9.2 355 12.3 101220 98
2005-05-02 07:04:57 51°14.993 2°54.467 9.6 355 12.3 101220 98
2005-05-02 07:05:01 51°15.006 2°54.455 9.8 355 12.3 101230 98
2005-05-02 07:05:06 51°15.024 2°54.439 9.8 353 12.3 101230 98
2005-05-02 07:05:11 51°15.04 2°54.425 9.7 352 12.3 101230 98
2005-05-02 07:05:17 51°15.058 2°54.408 9.8 352 12.3 101230 98
2005-05-02 07:05:21 51°15.073 2°54.395 9.6 351 12.3 101220 98
2005-05-02 07:05:27 51°15.091 2°54.379 9.5 352 12.3 101220 98
2005-05-02 07:05:31 51°15.106 2°54.367 9.7 352 12.3 101220 98
2005-05-02 07:05:36 51°15.122 2°54.352 9.6 352 12.3 101220 98
2005-05-02 07:05:41 51°15.138 2°54.34 9.6 355 12.3 101220 98
2005-05-02 07:05:46 51°15.156 2°54.325 10 349 12.3 101220 98
2005-05-02 07:05:51 51°15.173 2°54.312 10.3 351 12.3 101220 98
2005-05-02 07:05:56 51°15.191 2°54.299 10.7 350 12.3 101220 98
2005-05-02 07:06:01 51°15.208 2°54.287 10.7 350 12.3 101220 98
2005-05-02 07:06:07 51°15.227 2°54.273 10.7 351 12.3 101220 98
2005-05-02 07:06:11 51°15.243 2°54.261 10.7 351 12.3 101220 98
2005-05-02 07:06:16 51°15.26 2°54.248 11 351 12.3 101220 98
2005-05-02 07:06:21 51°15.275 2°54.236 11 351 12.3 101220 98
2005-05-02 07:06:27 51°15.295 2°54.22 10.8 349 12.3 101220 98
2005-05-02 07:06:31 51°15.311 2°54.207 4.4 348 12.3 101220 98
2005-05-02 07:06:37 51°15.329 2°54.193 10.9 349 12.3 101220 98
2005-05-02 07:06:41 51°15.343 2°54.182 11 349 12.3 101220 98
2005-05-02 07:06:47 51°15.363 2°54.166 11.1 350 12.3 101220 98
2005-05-02 07:06:51 51°15.378 2°54.154 10.8 351 12.2 101220 98
2005-05-02 07:06:57 51°15.397 2°54.14 11.2 351 12.2 101220 98
2005-05-02 07:07:01 51°15.411 2°54.129 10.9 352 12.3 101220 98
2005-05-02 07:07:06 51°15.427 2°54.115 11.9 352 12.3 101220 98
2005-05-02 07:07:12 51°15.447 2°54.097 11.2 352 12.2 101210 98
2005-05-02 07:07:16 51°15.46 2°54.086 11.5 352 12.2 101210 98
2005-05-02 07:07:21 51°15.479 2°54.069 11.4 353 12.3 101210 98
2005-05-02 07:07:26 51°15.495 2°54.055 11.9 353 12.3 101210 98
2005-05-02 07:07:31 51°15.511 2°54.04 11.4 355 12.2 101210 98
2005-05-02 07:07:37 51°15.53 2°54.024 12 354 12.2 101210 98
2005-05-02 07:07:42 51°15.546 2°54.009 12 355 12.2 101200 98
2005-05-02 07:07:47 51°15.562 2°53.995 11.4 355 12.2 101200 98
2005-05-02 07:07:51 51°15.578 2°53.983 11.9 356 12.2 101200 98
2005-05-02 07:07:56 51°15.594 2°53.969 12.1 356 12.2 101200 98
2005-05-02 07:08:01 51°15.609 2°53.957 11.9 356 12.2 101200 98
2005-05-02 07:08:07 51°15.63 2°53.941 11.9 355 12.2 101200 98
2005-05-02 07:08:11 51°15.645 2°53.929 11.7 356 12.2 101200 98
2005-05-02 07:08:16 51°15.66 2°53.917 12 357 12.2 101200 98
2005-05-02 07:08:21 51°15.677 2°53.904 11.7 359 12.2 101190 98
2005-05-02 07:08:27 51°15.698 2°53.888 11.5 358 12.2 101190 98
2005-05-02 07:08:31 51°15.713 2°53.876 12 358 12.1 101180 98
2005-05-02 07:08:37 51°15.731 2°53.861 11.8 357 12.1 101180 98
2005-05-02 07:08:41 51°15.746 2°53.849 11.7 358 12.1 101180 98
2005-05-02 07:08:47 51°15.765 2°53.834 11.5 359 12.1 101180 98
2005-05-02 07:08:51 51°15.78 2°53.822 11.7 358 12.1 101180 98
2005-05-02 07:08:56 51°15.797 2°53.808 12 357 12.1 101180 98
2005-05-02 07:09:01 51°15.814 2°53.795 11.8 360 12.1 101170 98
2005-05-02 07:09:06 51°15.83 2°53.781 11.9 -999 12.1 101170 98
2005-05-02 07:09:11 51°15.847 2°53.768 12.1 359 12.1 101170 98
2005-05-02 07:09:17 51°15.866 2°53.753 12.3 360 12.1 101170 98
2005-05-02 07:09:21 51°15.879 2°53.742 12 1 12.1 101160 98
2005-05-02 07:09:27 51°15.899 2°53.726 11.9 1 12.1 101160 98
2005-05-02 07:09:31 51°15.915 2°53.714 11.8 1 12.1 101150 98
2005-05-02 07:09:37 51°15.933 2°53.7 12.4 1 12.1 101150 98
2005-05-02 07:09:42 51°15.95 2°53.687 11.7 2 12.1 101150 98
2005-05-02 07:09:46 51°15.965 2°53.675 12.1 3 12.1 101150 98
2005-05-02 07:09:51 51°15.982 2°53.661 12.1 3 12.1 101140 98
2005-05-02 07:09:57 51°16.001 2°53.647 12 3 12.1 101140 98
2005-05-02 07:10:01 51°16.014 2°53.636 12 2 12.1 101140 98
2005-05-02 07:10:07 51°16.035 2°53.621 12.1 3 12.1 101140 98
2005-05-02 07:10:11 51°16.05 2°53.609 11.8 2 12.1 101140 98
2005-05-02 07:10:17 51°16.069 2°53.595 11.9 3 12.1 101140 98
2005-05-02 07:10:21 51°16.085 2°53.584 11.9 3 12.1 101130 98
2005-05-02 07:10:27 51°16.103 2°53.57 11.7 4 12.1 101130 98
2005-05-02 07:10:31 51°16.119 2°53.558 11.7 4 12.1 101130 98
2005-05-02 07:10:36 51°16.134 2°53.547 11.6 5 12.1 101130 98
2005-05-02 07:10:42 51°16.155 2°53.531 11.8 3 12 101140 98
2005-05-02 07:10:46 51°16.169 2°53.521 11.6 6 12 101140 98
2005-05-02 07:10:51 51°16.187 2°53.507 11.5 6 12.1 101130 98
2005-05-02 07:10:56 51°16.205 2°53.494 11.8 5 12.1 101130 98
2005-05-02 07:11:01 51°16.22 2°53.482 11.5 6 12 101130 98
2005-05-02 07:11:07 51°16.241 2°53.467 11.6 5 12 101130 98
2005-05-02 07:11:12 51°16.258 2°53.454 11.8 4 12 101120 98
2005-05-02 07:11:16 51°16.273 2°53.442 11.8 5 12 101120 98
2005-05-02 07:11:21 51°16.289 2°53.43 11.8 6 12.1 101120 98
2005-05-02 07:11:27 51°16.309 2°53.414 12.2 5 12.1 101120 98
2005-05-02 07:11:31 51°16.324 2°53.402 12.2 5 12 101120 98
2005-05-02 07:11:37 51°16.343 2°53.387 12 5 12 101120 98
2005-05-02 07:11:41 51°16.358 2°53.375 11.5 6 12 101120 98
2005-05-02 07:11:47 51°16.377 2°53.36 12.1 4 12 101120 98
2005-05-02 07:11:51 51°16.392 2°53.347 11.8 5 12 101120 98
2005-05-02 07:11:57 51°16.411 2°53.333 11.7 4 12 101120 98
2005-05-02 07:12:01 51°16.426 2°53.321 12.5 4 12 101130 98
2005-05-02 07:12:07 51°16.445 2°53.307 12 3 12 101130 98
2005-05-02 07:12:11 51°16.46 2°53.295 11.9 4 12 101120 98
2005-05-02 07:12:17 51°16.479 2°53.281 12.6 3 12 101120 98
2005-05-02 07:12:21 51°16.493 2°53.27 12.1 5 12 101130 98
2005-05-02 07:12:27 51°16.513 2°53.254 12.5 3 12 101130 98
2005-05-02 07:12:31 51°16.529 2°53.243 12 3 12 101120 98
2005-05-02 07:12:37 51°16.547 2°53.228 12 4 12 101120 98
2005-05-02 07:12:42 51°16.564 2°53.215 12.3 5 12 101120 98
2005-05-02 07:12:46 51°16.579 2°53.202 12.2 4 12 101120 98
2005-05-02 07:12:51 51°16.596 2°53.189 12.4 3 12 101120 98
2005-05-02 07:12:56 51°16.614 2°53.176 11.9 4 12 101120 98
2005-05-02 07:13:02 51°16.632 2°53.162 12.1 3 12 101130 98
2005-05-02 07:13:07 51°16.649 2°53.148 12.2 6 12 101130 98
2005-05-02 07:13:11 51°16.664 2°53.136 12.7 4 12 101130 98
2005-05-02 07:13:17 51°16.682 2°53.119 12.1 5 12 101130 98
2005-05-02 07:13:21 51°16.695 2°53.108 12.2 5 12 101130 98
2005-05-02 07:13:27 51°16.714 2°53.089 12 4 12 101130 98
2005-05-02 07:13:31 51°16.728 2°53.075 11.6 5 12 101130 98
2005-05-02 07:13:37 51°16.746 2°53.057 11.7 5 12 101130 98
2005-05-02 07:13:41 51°16.76 2°53.043 12.1 5 12 101130 98
2005-05-02 07:13:46 51°16.775 2°53.027 12.3 6 12 101130 98
2005-05-02 07:13:51 51°16.791 2°53.01 12 4 12 101130 98
2005-05-02 07:13:57 51°16.808 2°52.993 11.8 5 12 101130 98
2005-05-02 07:14:01 51°16.822 2°52.979 11.7 4 12 101130 98
2005-05-02 07:14:07 51°16.84 2°52.962 11.9 5 12 101130 98
2005-05-02 07:14:11 51°16.854 2°52.948 11.7 5 12 101120 98
2005-05-02 07:14:17 51°16.871 2°52.931 11.7 4 12 101120 98
2005-05-02 07:14:21 51°16.884 2°52.92 11.9 4 12 101140 98
2005-05-02 07:14:27 51°16.903 2°52.901 11.8 3 12 101140 98
2005-05-02 07:14:31 51°16.918 2°52.888 11.8 4 12 101130 98
2005-05-02 07:14:37 51°16.935 2°52.871 12.2 3 12 101130 98
2005-05-02 07:14:41 51°16.948 2°52.858 12.2 3 12 101140 98
2005-05-02 07:14:47 51°16.968 2°52.84 12.2 3 12 101140 98
2005-05-02 07:14:51 51°16.982 2°52.826 11.7 3 12 101140 98
2005-05-02 07:14:57 51°17 2°52.809 12.2 3 12 101140 98
2005-05-02 07:15:02 51°17.016 2°52.794 12.1 4 12 101140 98
2005-05-02 07:15:07 51°17.032 2°52.778 12 2 12 101140 98
2005-05-02 07:15:11 51°17.047 2°52.764 12.5 2 12 101140 98
2005-05-02 07:15:16 51°17.063 2°52.749 12.3 -999 12 101140 98
2005-05-02 07:15:21 51°17.079 2°52.733 12.2 2 12 101150 98
2005-05-02 07:15:27 51°17.097 2°52.717 11.7 -999 12 101150 98
2005-05-02 07:15:31 51°17.112 2°52.703 12 -999 12 101140 98
2005-05-02 07:15:36 51°17.128 2°52.688 11.7 -999 12 101140 98
2005-05-02 07:15:41 51°17.143 2°52.674 11.4 2 12 101140 98
2005-05-02 07:15:47 51°17.163 2°52.656 11.9 1 12 101140 98
2005-05-02 07:15:51 51°17.177 2°52.642 11.7 1 12 101140 98
2005-05-02 07:15:56 51°17.193 2°52.627 11.8 2 12 101140 98
2005-05-02 07:16:01 51°17.208 2°52.613 11.7 2 12 101140 98
2005-05-02 07:16:06 51°17.226 2°52.596 12.2 3 12 101140 98
2005-05-02 07:16:11 51°17.242 2°52.58 11.9 3 12 101150 98
2005-05-02 07:16:17 51°17.26 2°52.563 11.6 1 12 101150 98
2005-05-02 07:16:21 51°17.274 2°52.549 12 1 12 101150 98
2005-05-02 07:16:25 51°17.287 2°52.537 11.7 1 12 101150 98
2005-05-02 07:16:31 51°17.307 2°52.519 12 1 11.9 101160 98
2005-05-02 07:16:37 51°17.325 2°52.502 12.2 1 11.9 101160 98
2005-05-02 07:16:41 51°17.34 2°52.488 12.5 2 12 101150 98
2005-05-02 07:16:47 51°17.358 2°52.471 12.4 360 12 101150 98
2005-05-02 07:16:51 51°17.372 2°52.457 12.1 -999 11.9 101160 98
2005-05-02 07:16:56 51°17.389 2°52.442 12.1 359 11.9 101160 98
2005-05-02 07:17:01 51°17.405 2°52.427 12.1 1 11.9 101150 98
2005-05-02 07:17:07 51°17.423 2°52.41 12.2 360 11.9 101150 98
2005-05-02 07:17:11 51°17.437 2°52.396 12.1 1 11.9 101150 98
2005-05-02 07:17:17 51°17.455 2°52.379 12.3 -999 11.9 101150 98
2005-05-02 07:17:21 51°17.47 2°52.365 12.5 -999 11.9 101160 98
2005-05-02 07:17:27 51°17.488 2°52.348 11.7 1 11.9 101160 98
2005-05-02 07:17:31 51°17.503 2°52.335 12.5 1 11.9 101160 98
2005-05-02 07:17:36 51°17.518 2°52.321 12.3 -999 11.9 101160 98
2005-05-02 07:17:42 51°17.537 2°52.303 11.7 359 11.9 101150 98
2005-05-02 07:17:47 51°17.554 2°52.288 12.1 1 11.9 101150 98
2005-05-02 07:17:51 51°17.568 2°52.274 12.4 1 11.9 101150 98
2005-05-02 07:17:57 51°17.587 2°52.257 11.9 2 11.9 101150 98
2005-05-02 07:18:01 51°17.601 2°52.244 12.2 1 11.9 101150 98
2005-05-02 07:18:07 51°17.62 2°52.227 12.1 4 11.9 101150 98
2005-05-02 07:18:11 51°17.635 2°52.214 12.2 2 11.9 101150 98
2005-05-02 07:18:17 51°17.653 2°52.197 12.1 4 11.9 101150 98
2005-05-02 07:18:21 51°17.666 2°52.185 12.2 4 11.9 101150 98
2005-05-02 07:18:27 51°17.686 2°52.167 12.3 5 11.9 101150 98
2005-05-02 07:18:31 51°17.701 2°52.153 11.8 4 11.9 101150 98
2005-05-02 07:18:37 51°17.719 2°52.136 12.2 3 11.9 101150 98
2005-05-02 07:18:41 51°17.734 2°52.122 12 3 11.9 101150 98
2005-05-02 07:18:46 51°17.75 2°52.107 11.8 3 11.9 101150 98
2005-05-02 07:18:51 51°17.766 2°52.092 11.4 3 11.8 101150 98
2005-05-02 07:18:57 51°17.784 2°52.075 11.8 2 11.8 101150 98
2005-05-02 07:19:01 51°17.797 2°52.063 11.6 2 11.8 101150 98
2005-05-02 07:19:07 51°17.817 2°52.045 11.6 1 11.8 101150 98
2005-05-02 07:19:11 51°17.832 2°52.031 11.8 3 11.8 101150 98
2005-05-02 07:19:17 51°17.85 2°52.015 11.9 2 11.8 101150 98
2005-05-02 07:19:22 51°17.866 2°52 11.9 1 11.8 101150 98
2005-05-02 07:19:27 51°17.882 2°51.984 12.1 -999 11.8 101150 98
2005-05-02 07:19:31 51°17.896 2°51.969 12 1 11.8 101150 98
2005-05-02 07:19:37 51°17.914 2°51.952 11.8 2 11.8 101150 98
2005-05-02 07:19:41 51°17.926 2°51.939 12.1 1 11.8 101150 98
2005-05-02 07:19:47 51°17.945 2°51.919 12.5 360 11.8 101150 98
2005-05-02 07:19:51 51°17.959 2°51.904 11.7 2 11.8 101140 98
2005-05-02 07:19:57 51°17.976 2°51.887 11.8 359 11.8 101140 98
2005-05-02 07:20:01 51°17.989 2°51.874 12.2 1 11.8 101140 98
2005-05-02 07:20:06 51°18.006 2°51.856 12.4 359 11.8 101140 98
2005-05-02 07:20:12 51°18.024 2°51.838 12.4 1 11.8 101150 98
2005-05-02 07:20:16 51°18.038 2°51.823 12 -999 11.8 101150 98
2005-05-02 07:20:21 51°18.052 2°51.809 12.2 1 11.7 101140 98
2005-05-02 07:20:27 51°18.071 2°51.789 11.9 1 11.7 101140 98
2005-05-02 07:20:31 51°18.086 2°51.775 12 2 11.7 101150 98
2005-05-02 07:20:37 51°18.104 2°51.758 12.1 1 11.7 101150 98
2005-05-02 07:20:41 51°18.118 2°51.744 12 1 11.7 101140 98
2005-05-02 07:20:47 51°18.136 2°51.727 12.2 -999 11.7 101140 98
2005-05-02 07:20:52 51°18.152 2°51.711 11.8 1 11.7 101140 98
2005-05-02 07:20:57 51°18.168 2°51.695 11.7 1 11.7 101140 98
2005-05-02 07:21:01 51°18.181 2°51.683 12.2 2 11.7 101140 98
2005-05-02 07:21:06 51°18.199 2°51.665 11.8 3 11.7 101140 98
2005-05-02 07:21:11 51°18.215 2°51.649 11.3 1 11.7 101140 98
2005-05-02 07:21:17 51°18.232 2°51.631 11.8 7 11.7 101140 98
2005-05-02 07:21:21 51°18.245 2°51.619 11.3 6 11.7 101140 98
2005-05-02 07:21:27 51°18.265 2°51.6 11.6 4 11.7 101140 98
2005-05-02 07:21:31 51°18.279 2°51.585 11.8 5 11.7 101140 98
2005-05-02 07:21:36 51°18.295 2°51.569 11.3 5 11.7 101140 98
2005-05-02 07:21:41 51°18.31 2°51.555 11.6 7 11.7 101130 98
2005-05-02 07:21:47 51°18.33 2°51.536 11.9 3 11.7 101130 98
2005-05-02 07:21:51 51°18.345 2°51.522 12 3 11.7 101140 98
2005-05-02 07:21:56 51°18.361 2°51.506 11.5 3 11.7 101140 98
2005-05-02 07:22:02 51°18.379 2°51.489 11.7 3 11.7 101140 98
2005-05-02 07:22:06 51°18.394 2°51.475 12 4 11.7 101140 98
2005-05-02 07:22:11 51°18.41 2°51.459 11.6 2 11.7 101140 98
2005-05-02 07:22:17 51°18.429 2°51.443 11.9 3 11.7 101140 98
2005-05-02 07:22:21 51°18.442 2°51.43 11.7 4 11.7 101140 98
2005-05-02 07:22:27 51°18.462 2°51.411 11.4 4 11.7 101140 98
2005-05-02 07:22:32 51°18.478 2°51.396 11.9 4 11.6 101140 98
2005-05-02 07:22:37 51°18.495 2°51.381 11.9 3 11.6 101140 98
2005-05-02 07:22:41 51°18.51 2°51.367 12 4 11.6 101140 98
2005-05-02 07:22:46 51°18.526 2°51.352 12 3 11.6 101140 98
2005-05-02 07:22:51 51°18.542 2°51.336 11.8 3 11.6 101140 98
2005-05-02 07:22:57 51°18.56 2°51.319 12 3 11.6 101140 98
2005-05-02 07:23:01 51°18.573 2°51.307 12.3 3 11.6 101140 98
2005-05-02 07:23:07 51°18.593 2°51.288 12.1 4 11.6 101140 98
2005-05-02 07:23:11 51°18.607 2°51.274 12.3 3 11.6 101140 98
2005-05-02 07:23:17 51°18.625 2°51.257 12.1 4 11.6 101140 98
2005-05-02 07:23:21 51°18.64 2°51.243 12.3 3 11.6 101140 98
2005-05-02 07:23:27 51°18.658 2°51.225 12.3 3 11.6 101140 98
2005-05-02 07:23:31 51°18.672 2°51.212 11.7 3 11.6 101130 98
2005-05-02 07:23:37 51°18.69 2°51.194 11.8 4 11.6 101130 98
2005-05-02 07:23:42 51°18.706 2°51.179 12.6 4 11.6 101140 98
2005-05-02 07:23:46 51°18.721 2°51.165 12.2 5 11.6 101140 98